CZ-6A DEB, 54541

Orbit data source: Space-Track

CZ-6A DEB, 54541 is space debris in SSO originally from a launch on Fri, 11 Nov 2022 UTC launched from the Taiyaun Space Center, China (TSC). Debris objects in space refer to the collection of defunct objects orbiting the Earth. Examples of debris include non-operational satellites, rocket bodies, and fragments generated from explosions, collisions, or faulty payload assembly.

Loading next visibility...
Identifier
54541, 2022-151KR
Orbit
SSO
Country
Flag of CNCN / PRC
Related business
Manufacturer
SAST
Mission
Spacecraft
Bus & Motor
Unknown
Mass
Unknown
Launch date (UTC)
2022-11-11 (4 years ago)
Launch vehicle
Unknown
Launch site
Taiyaun Space Center, China (TSC)
Object type
Payload
Rocket body
Debris
Shape & HBR
Unknown shape, 0.6 m
Radar Cross Section
Medium (>0.1 m² and <1 m²)

Expand to show TLE details & history
Last TLE update: 5 hours ago

TLE from 5 hours ago
0 CZ-6A DEB
1 54541U 22151KR  26238.47754007  .00000291  00000-0  19559-3 0  9999
2 54541  98.8682 232.8640 0060804 167.8126 192.4530 14.07357889194253
Epoch: 2026-08-26T11:27Z
TLE epoch observation values (Epoch: 2026-08-26T11:27:39.462Z)
Latitude
-0.00003°
Longitude
86.21961°
Altitude
914.366 km
Speed
7.373 km/s
True Right ascension
15h 31m 27s
True Declination
0° 00' 00"
Sunlit
Object was in daylight at epoch
Visualization orbit readout
Latitude
Unknown
Longitude
Unknown
Altitude
Unknown
Speed
Unknown
Apparent Right ascension
Unknown
Apparent Declination
Unknown
Sunlit
N/A
Visualization observer readout
Local Sidereal Time
08:05:41
Azimuth
Unknown
Elevation
Unknown
Doppler factor
Unknown
Orbital elements
Apogee altitude
909.655 km
Perigee altitude
821.565 km
Semi-major axis
7,243.747 km
Eccentricity
0.00608
Inclination
98.8682°
RAAN
232.864°
Arg. of periapsis
167.8126°
True anomaly
192.30386°
Mean anomaly
192.453°
Eccentric anomaly
192.37832°
Mean motion
3.52045 °/min
Orbital period
102.26 mins
BSTAR
0.00019559
Loading maneuver chart data...
Computing Atmospheric mass density...
Loading historical data...
Loading historical data...
Loading historical data...
Loading historical data...
Loading historical data...
Loading historical data...
Loading historical data...

Documentation

Showing up to 5 results
|